Weather History for Novato, CA

Change the Weather History Date:

Saturday, October 12, 2013

  Actual Average (KAPC) Record (KAPC)
Temperature  
Mean Temperature 53 °F 60 °F  
Max Temperature 71 °F 75 °F 95 °F (2001)
Min Temperature 35 °F 44 °F 38 °F (2002)
Degree Days  
Heating Degree Days 12    
Month to date heating degree days  
Since 1 July heating degree days  
Cooling Degree Days 0    
Month to date cooling degree days  
Year to date cooling degree days  
Growing Degree Days 3 (Base 50)    
Moisture  
Dew Point 44 °F    
Average Humidity 77    
Maximum Humidity 100    
Minimum Humidity 35    
Precipitation  
Precipitation 0.00 in - 4.66 in (1962)
Month to date precipitation  
Year to date precipitation  
Since 1 July precipitation  
Sea Level Pressure  
Sea Level Pressure 29.97 in    
Wind  
Wind Speed 4 mph (West)    
Max Wind Speed 16 mph    
Max Gust Speed 23 mph    
Visibility 7 miles    
Events Fog    
T = Trace of Precipitation, MM = Missing Value Source: NWS Daily Summary

Daily Weather History Graph

Daily Weather History Graph

Search for Another Location

Airport:

Trip Planner

Search our weather history database for the weather conditions in past years. The results will help you decide how hot, cold, wet, or windy it might be!

Date:

Astronomy

Oct. 12, 2013 Rise Set
Actual Time 7:16 AM PDT 6:36 PM PDT
Civil Twilight 6:49 AM PDT 7:02 PM PDT
Nautical Twilight 6:19 AM PDT 7:33 PM PDT
Astronomical Twilight 5:48 AM PDT 8:03 PM PDT
Moon 2:44 PM PDT (10/12) 12:31 AM PDT (10/12)
Length of Visible Light 12h 12m
Length of Day
11h 19m
First Quarter, 60% of the Moon is Illuminated
Oct 12
First Quarter
Oct 18
Full
Oct 26
Last Quarter
Nov 3
New
Nov 9
First Quarter

Hourly Weather History & Observations

Time (PDT) Temp. Windchill Dew Point Humidity Pressure Visibility Wind Dir Wind Speed Gust Speed Precip Events Conditions
12:15 AM 41.0 °F 37.1 °F 41.0 °F 100% 30.02 in 1.0 mi North 5.8 mph - N/A   Mostly Cloudy
12:35 AM 41.0 °F 37.1 °F 41.0 °F 100% 30.02 in 0.5 mi North 5.8 mph - N/A Fog Fog
12:55 AM 42.8 °F 41.1 °F 42.8 °F 100% 30.01 in 0.2 mi WNW 3.5 mph - N/A Fog Fog
1:15 AM 44.6 °F 43.1 °F 44.6 °F 100% 30.01 in 0.2 mi NNW 3.5 mph - N/A Fog Fog
1:35 AM 42.8 °F 41.1 °F 42.8 °F 100% 30.02 in 0.2 mi North 3.5 mph - N/A Fog Fog
1:55 AM 42.8 °F - 42.8 °F 100% 30.02 in 0.2 mi Calm Calm - N/A Fog Fog
2:15 AM 41.0 °F - 41.0 °F 100% 30.02 in 0.5 mi Calm Calm - N/A Fog Fog
2:35 AM 39.2 °F - 39.2 °F 100% 30.02 in 1.8 mi Calm Calm - N/A   Clear
2:55 AM 41.0 °F - 41.0 °F 100% 30.01 in 0.2 mi Calm Calm - N/A Fog Fog
3:15 AM 41.0 °F - 41.0 °F 100% 30.01 in 10.0 mi Calm Calm - N/A   Scattered Clouds
3:35 AM 41.0 °F - 41.0 °F 100% 30.00 in 2.5 mi Calm Calm - N/A   Partly Cloudy
3:55 AM 41.0 °F - 41.0 °F 100% 30.00 in 9.0 mi Calm Calm - N/A   Mostly Cloudy
4:15 AM 41.0 °F - 41.0 °F 100% 30.00 in 10.0 mi Calm Calm - N/A   Overcast
4:35 AM 39.2 °F - 39.2 °F 100% 30.00 in 4.0 mi Calm Calm - N/A   Scattered Clouds
4:55 AM 39.2 °F - 39.2 °F 100% 30.00 in 9.0 mi Calm Calm - N/A   Mostly Cloudy
5:15 AM 39.2 °F - 39.2 °F 100% 30.00 in 10.0 mi Calm Calm - N/A   Partly Cloudy
5:35 AM 37.4 °F - 37.4 °F 100% 30.00 in 1.2 mi Calm Calm - N/A   Clear
5:55 AM 37.4 °F - 37.4 °F 100% 30.00 in 0.8 mi Calm Calm - N/A   Mist
6:15 AM 39.2 °F - 39.2 °F 100% 30.01 in 10.0 mi Calm Calm - N/A   Partly Cloudy
6:35 AM 37.4 °F - 37.4 °F 100% 30.01 in 1.0 mi Calm Calm - N/A   Mostly Cloudy
6:55 AM 39.2 °F - 39.2 °F 100% 30.01 in 0.5 mi Calm Calm - N/A Fog Fog
7:15 AM 39.2 °F - 39.2 °F 100% 30.01 in 9.0 mi Calm Calm - N/A   Clear
7:35 AM 35.6 °F - 35.6 °F 100% 30.01 in 0.2 mi Calm Calm - N/A Fog Fog
7:55 AM 37.4 °F - 37.4 °F 100% 30.02 in 0.2 mi Calm Calm - N/A Fog Fog
8:15 AM 39.2 °F - 39.2 °F 100% 30.02 in 0.2 mi Calm Calm - N/A Fog Fog
8:35 AM 42.8 °F 41.1 °F 42.8 °F 100% 30.02 in 10.0 mi North 3.5 mph - N/A   Mostly Cloudy
8:55 AM 44.6 °F 41.4 °F 44.6 °F 100% 30.03 in 0.2 mi North 5.8 mph - N/A Fog Fog
9:15 AM 46.4 °F 43.5 °F 46.4 °F 100% 30.03 in 0.2 mi NNW 5.8 mph - N/A Fog Fog
9:35 AM 46.4 °F 44.3 °F 46.4 °F 100% 30.03 in 0.2 mi North 4.6 mph - N/A Fog Fog
9:55 AM 46.4 °F 44.3 °F 46.4 °F 100% 30.03 in 0.2 mi North 4.6 mph - N/A Fog Fog
10:15 AM 48.2 °F - 48.2 °F 100% 30.02 in 2.5 mi NNE 4.6 mph - N/A   Overcast
10:35 AM 48.2 °F - 48.2 °F 100% 30.02 in 9.0 mi Calm Calm - N/A   Mostly Cloudy
10:55 AM 50.0 °F - 50.0 °F 100% 30.02 in 10.0 mi ESE 3.5 mph - N/A   Partly Cloudy
11:15 AM 53.6 °F - 50.0 °F 88% 30.01 in 10.0 mi Calm Calm - N/A   Clear
11:35 AM 57.2 °F - 50.0 °F 77% 30.00 in 10.0 mi Calm Calm - N/A   Clear
11:55 AM 57.2 °F - 50.0 °F 77% 30.00 in 10.0 mi Calm Calm - N/A   Clear
12:15 PM 60.8 °F - 50.0 °F 68% 29.99 in 10.0 mi SSE 3.5 mph - N/A   Clear
12:35 PM 62.6 °F - 50.0 °F 63% 29.98 in 10.0 mi SE 3.5 mph - N/A   Clear
12:55 PM 64.4 °F - 50.0 °F 59% 29.97 in 10.0 mi ESE 4.6 mph - N/A   Clear
1:15 PM 66.2 °F - 50.0 °F 56% 29.95 in 10.0 mi SSE 3.5 mph - N/A   Clear
1:35 PM 68.0 °F - 50.0 °F 52% 29.94 in 10.0 mi SE 4.6 mph - N/A   Clear
1:55 PM 68.0 °F - 50.0 °F 52% 29.93 in 10.0 mi SE 5.8 mph - N/A   Clear
2:15 PM 68.0 °F - 51.8 °F 56% 29.93 in 10.0 mi SE 6.9 mph - N/A   Clear
2:35 PM 69.8 °F - 50.0 °F 49% 29.92 in 10.0 mi ESE 5.8 mph - N/A   Clear
2:55 PM 71.6 °F - 50.0 °F 46% 29.92 in 9.0 mi SSE 5.8 mph - N/A   Clear
3:15 PM 71.6 °F - 42.8 °F 35% 29.91 in 10.0 mi WSW 13.8 mph - N/A   Clear
3:35 PM 71.6 °F - 42.8 °F 35% 29.91 in 10.0 mi WSW 15.0 mph - N/A   Clear
3:55 PM 68.0 °F - 41.0 °F 37% 29.91 in 10.0 mi WSW 15.0 mph - N/A   Clear
4:15 PM 66.2 °F - 41.0 °F 40% 29.91 in 10.0 mi SW 15.0 mph 19.6 mph N/A   Clear
4:35 PM 64.4 °F - 44.6 °F 49% 29.91 in 10.0 mi SW 16.1 mph - N/A   Clear
4:55 PM 62.6 °F - 44.6 °F 52% 29.91 in 10.0 mi SW 12.7 mph - N/A   Clear
5:15 PM 62.6 °F - 44.6 °F 52% 29.91 in 10.0 mi SSW 12.7 mph - N/A   Clear
5:35 PM 62.6 °F - 44.6 °F 52% 29.90 in 10.0 mi Calm Calm - N/A   Clear
5:55 PM 62.6 °F - 44.6 °F 52% 29.90 in 10.0 mi SSW 12.7 mph - N/A   Clear
6:15 PM 62.6 °F - 44.6 °F 52% 29.90 in 10.0 mi NW 3.5 mph - N/A   Clear
6:35 PM 59.0 °F - 44.6 °F 59% 29.90 in 10.0 mi South 3.5 mph - N/A   Clear
6:55 PM 59.0 °F - 46.4 °F 63% 29.90 in 10.0 mi South 4.6 mph - N/A   Clear
7:15 PM 57.2 °F - 46.4 °F 67% 29.90 in 10.0 mi SSE 3.5 mph - N/A   Clear
7:35 PM 57.2 °F - 44.6 °F 63% 29.90 in 10.0 mi Calm Calm - N/A   Clear
7:55 PM 55.4 °F - 44.6 °F 67% 29.90 in 10.0 mi ESE 4.6 mph - N/A   Clear
8:15 PM 57.2 °F - 46.4 °F 67% 29.90 in 10.0 mi East 10.4 mph - N/A   Clear
8:35 PM 55.4 °F - 46.4 °F 72% 29.91 in 10.0 mi SE 3.5 mph - N/A   Clear
8:55 PM 55.4 °F - 46.4 °F 72% 29.91 in 10.0 mi South 6.9 mph - N/A   Clear
9:15 PM 55.4 °F - 44.6 °F 67% 29.91 in 10.0 mi NW 5.8 mph - N/A   Clear
9:35 PM 59.0 °F - 44.6 °F 59% 29.91 in 10.0 mi WNW 11.5 mph - N/A   Clear
9:55 PM 60.8 °F - 44.6 °F 55% 29.91 in 10.0 mi NW 10.4 mph - N/A   Clear
10:15 PM 62.6 °F - 44.6 °F 52% 29.91 in 10.0 mi NW 11.5 mph 18.4 mph N/A   Clear
10:35 PM 62.6 °F - 44.6 °F 52% 29.91 in 10.0 mi NW 13.8 mph 23.0 mph N/A   Clear
10:55 PM 60.8 °F - 44.6 °F 55% 29.92 in 10.0 mi NNW 9.2 mph - N/A   Clear
11:15 PM 60.8 °F - 44.6 °F 55% 29.91 in 10.0 mi NW 12.7 mph 18.4 mph N/A   Clear
11:35 PM 59.0 °F - 46.4 °F 63% 29.92 in 10.0 mi NW 10.4 mph - N/A   Clear
11:55 PM 59.0 °F - 46.4 °F 63% 29.92 in 10.0 mi NW 9.2 mph 18.4 mph N/A   Clear